Previsão horária em Jugoszow

Hoje, 23 Junho, Quarta-feira

Tempo Temperatura Precipitação Vento Pressão Humidade
00:00 +22°C° 0.1 mm 1 m/s 741 mmHg 91%
01:00 +22°C° 0 mm 1 m/s 741 mmHg 90%
02:00 +22°C° 0.6 mm 1 m/s 741 mmHg 92%
03:00 +21°C° 0.6 mm 2 m/s 741 mmHg 93%
04:00 +20°C° 0.6 mm 2 m/s 741 mmHg 95%
05:00 +21°C° 0.3 mm 2 m/s 742 mmHg 92%
06:00 +23°C° 0.3 mm 2 m/s 742 mmHg 89%
07:00 +24°C° 0.3 mm 3 m/s 743 mmHg 86%
08:00 +26°C° 0 mm 2 m/s 743 mmHg 80%
09:00 +27°C° 0 mm 2 m/s 743 mmHg 74%
10:00 +28°C° 0 mm 2 m/s 744 mmHg 69%
11:00 +29°C° 0.3 mm 1 m/s 744 mmHg 65%
12:00 +30°C° 0.3 mm 1 m/s 744 mmHg 62%
13:00 +29°C° 0.3 mm 0 m/s 744 mmHg 59%
14:00 +31°C° 0.4 mm 1 m/s 744 mmHg 60%
15:00 +31°C° 0.4 mm 2 m/s 744 mmHg 61%
16:00 +31°C° 0.4 mm 3 m/s 744 mmHg 61%
17:00 +29°C° 0.4 mm 2 m/s 744 mmHg 68%
18:00 +28°C° 0.4 mm 2 m/s 744 mmHg 75%
19:00 +26°C° 0.4 mm 2 m/s 744 mmHg 81%
20:00 +25°C° 0.7 mm 2 m/s 744 mmHg 86%
21:00 +24°C° 0.7 mm 2 m/s 744 mmHg 90%
22:00 +23°C° 0.7 mm 2 m/s 744 mmHg 94%
23:00 +21°C° 0.3 mm 2 m/s 744 mmHg 95%

Amanhã, 24 Junho, Quinta-feira

Tempo Temperatura Precipitação Vento Pressão Humidade
00:00 +21°C° 0.3 mm 2 m/s 744 mmHg 96%
01:00 +20°C° 0.3 mm 2 m/s 744 mmHg 96%
02:00 +20°C° 0.1 mm 2 m/s 744 mmHg 96%
03:00 +20°C° 0.1 mm 2 m/s 744 mmHg 96%
04:00 +21°C° 0.1 mm 1 m/s 744 mmHg 96%
05:00 +22°C° 0 mm 1 m/s 744 mmHg 92%
06:00 +23°C° 0 mm 1 m/s 744 mmHg 88%
07:00 +25°C° 0 mm 1 m/s 744 mmHg 83%
08:00 +27°C° 0 mm 1 m/s 744 mmHg 76%
09:00 +28°C° 0 mm 1 m/s 744 mmHg 69%
10:00 +30°C° 0 mm 2 m/s 744 mmHg 62%
11:00 +31°C° 0 mm 2 m/s 744 mmHg 57%
12:00 +32°C° 0 mm 2 m/s 743 mmHg 52%
13:00 +34°C° 0 mm 2 m/s 743 mmHg 48%
14:00 +34°C° 0 mm 2 m/s 742 mmHg 48%
15:00 +34°C° 0 mm 3 m/s 742 mmHg 48%
16:00 +34°C° 0 mm 3 m/s 742 mmHg 49%
17:00 +29°C° 0.9 mm 3 m/s 742 mmHg 57%
18:00 +25°C° 0.9 mm 4 m/s 742 mmHg 66%
19:00 +20°C° 0.9 mm 4 m/s 742 mmHg 74%
20:00 +20°C° 0.1 mm 3 m/s 742 mmHg 77%
21:00 +19°C° 0.1 mm 2 m/s 742 mmHg 80%
22:00 +19°C° 0.1 mm 2 m/s 742 mmHg 83%
23:00 +20°C° 0.6 mm 1 m/s 742 mmHg 85%

Depois de amanhã, 25 Junho, Sexta-feira

Tempo Temperatura Precipitação Vento Pressão Humidade
00:00 +19°C° 0.6 mm 1 m/s 742 mmHg 87%
01:00 +19°C° 0.6 mm 1 m/s 742 mmHg 89%
02:00 +19°C° 0 mm 1 m/s 742 mmHg 89%
03:00 +17°C° 0 mm 0 m/s 741 mmHg 89%
04:00 +17°C° 0 mm 0 m/s 741 mmHg 89%
05:00 +20°C° 0 mm 1 m/s 741 mmHg 85%
06:00 +22°C° 0 mm 1 m/s 741 mmHg 81%
07:00 +23°C° 0 mm 1 m/s 741 mmHg 78%
08:00 +24°C° 0 mm 2 m/s 741 mmHg 75%
09:00 +25°C° 0 mm 2 m/s 742 mmHg 73%
10:00 +25°C° 0 mm 3 m/s 742 mmHg 71%
11:00 +25°C° 0 mm 3 m/s 742 mmHg 71%
12:00 +25°C° 0 mm 4 m/s 742 mmHg 71%
13:00 +23°C° 0 mm 4 m/s 742 mmHg 72%
14:00 +25°C° 0 mm 4 m/s 742 mmHg 69%
15:00 +25°C° 0 mm 4 m/s 742 mmHg 67%
16:00 +25°C° 0 mm 4 m/s 742 mmHg 64%
17:00 +23°C° 0 mm 4 m/s 742 mmHg 68%
18:00 +22°C° 0 mm 4 m/s 742 mmHg 71%
19:00 +21°C° 0 mm 4 m/s 742 mmHg 75%
20:00 +20°C° 0 mm 3 m/s 743 mmHg 78%
21:00 +18°C° 0 mm 2 m/s 743 mmHg 82%
22:00 +17°C° 0 mm 2 m/s 744 mmHg 86%
23:00 +16°C° 0 mm 2 m/s 744 mmHg 87%

26 Junho, Sábado

Tempo Temperatura Precipitação Vento Pressão Humidade
00:00 +16°C° 0 mm 2 m/s 744 mmHg 88%
01:00 +16°C° 0 mm 2 m/s 744 mmHg 90%
02:00 +16°C° 0 mm 2 m/s 744 mmHg 90%
03:00 +16°C° 0 mm 2 m/s 744 mmHg 90%
04:00 +16°C° 0 mm 2 m/s 744 mmHg 90%
05:00 +17°C° 0 mm 2 m/s 744 mmHg 85%
06:00 +18°C° 0 mm 3 m/s 745 mmHg 79%
07:00 +19°C° 0 mm 3 m/s 745 mmHg 74%
08:00 +20°C° 0 mm 3 m/s 745 mmHg 70%
09:00 +21°C° 0 mm 3 m/s 745 mmHg 66%
10:00 +22°C° 0 mm 3 m/s 745 mmHg 62%
11:00 +23°C° 0 mm 2 m/s 745 mmHg 60%
12:00 +23°C° 0 mm 2 m/s 745 mmHg 59%
13:00 +24°C° 0 mm 1 m/s 745 mmHg 57%
14:00 +24°C° 0 mm 1 m/s 745 mmHg 57%
15:00 +24°C° 0 mm 1 m/s 745 mmHg 57%
16:00 +24°C° 0 mm 2 m/s 745 mmHg 57%
17:00 +23°C° 0 mm 2 m/s 745 mmHg 61%
18:00 +23°C° 0 mm 2 m/s 745 mmHg 66%
19:00 +22°C° 0 mm 1 m/s 745 mmHg 70%
20:00 +20°C° 0 mm 1 m/s 745 mmHg 73%
21:00 +19°C° 0 mm 1 m/s 745 mmHg 76%
22:00 +18°C° 0 mm 1 m/s 746 mmHg 79%
23:00 +18°C° 0 mm 1 m/s 746 mmHg 81%

27 Junho, Domingo

Tempo Temperatura Precipitação Vento Pressão Humidade
00:00 +16°C° 0 mm 1 m/s 746 mmHg 83%
01:00 +16°C° 0 mm 1 m/s 746 mmHg 84%
02:00 +15°C° 0 mm 1 m/s 746 mmHg 85%
03:00 +15°C° 0 mm 1 m/s 746 mmHg 86%
04:00 +15°C° 0 mm 1 m/s 746 mmHg 86%
05:00 +18°C° 0 mm 1 m/s 746 mmHg 79%
06:00 +20°C° 0 mm 1 m/s 746 mmHg 71%
07:00 +20°C° 0 mm 0 m/s 746 mmHg 64%
08:00 +23°C° 0 mm 1 m/s 746 mmHg 59%
09:00 +24°C° 0 mm 1 m/s 746 mmHg 55%
10:00 +26°C° 0 mm 1 m/s 747 mmHg 50%
11:00 +26°C° 0 mm 1 m/s 746 mmHg 48%
12:00 +27°C° 0 mm 2 m/s 746 mmHg 46%
13:00 +28°C° 0 mm 2 m/s 746 mmHg 43%
14:00 +28°C° 0 mm 2 m/s 746 mmHg 44%
15:00 +28°C° 0 mm 2 m/s 746 mmHg 44%
16:00 +28°C° 0 mm 2 m/s 746 mmHg 44%
17:00 +26°C° 0 mm 2 m/s 746 mmHg 50%
18:00 +24°C° 0 mm 2 m/s 745 mmHg 56%
19:00 +23°C° 0 mm 2 m/s 745 mmHg 62%
20:00 +21°C° 0 mm 2 m/s 746 mmHg 63%
21:00 +20°C° 0 mm 2 m/s 746 mmHg 63%
22:00 +19°C° 0 mm 1 m/s 746 mmHg 63%
23:00 +19°C° 0 mm 1 m/s 746 mmHg 64%

28 Junho, Segunda-feira

Tempo Temperatura Precipitação Vento Pressão Humidade
00:00 +18°C° 0 mm 1 m/s 746 mmHg 65%
01:00 +18°C° 0 mm 1 m/s 746 mmHg 67%
02:00 +18°C° 0 mm 1 m/s 746 mmHg 68%
03:00 +16°C° 0 mm 1 m/s 746 mmHg 70%
04:00 +16°C° 0 mm 1 m/s 746 mmHg 72%
05:00 +19°C° 0 mm 1 m/s 746 mmHg 68%
06:00 +21°C° 0 mm 1 m/s 746 mmHg 64%
07:00 +23°C° 0 mm 1 m/s 747 mmHg 60%
08:00 +24°C° 0 mm 1 m/s 747 mmHg 56%
09:00 +26°C° 0 mm 1 m/s 747 mmHg 52%
10:00 +28°C° 0 mm 1 m/s 747 mmHg 47%
11:00 +28°C° 0 mm 1 m/s 746 mmHg 45%
12:00 +29°C° 0 mm 1 m/s 746 mmHg 43%
13:00 +30°C° 0 mm 1 m/s 746 mmHg 41%
14:00 +30°C° 0 mm 1 m/s 746 mmHg 42%
15:00 +30°C° 0 mm 1 m/s 746 mmHg 42%
16:00 +30°C° 0 mm 1 m/s 745 mmHg 42%
17:00 +28°C° 0 mm 2 m/s 745 mmHg 49%
18:00 +27°C° 0 mm 2 m/s 745 mmHg 56%
19:00 +25°C° 0 mm 2 m/s 745 mmHg 63%
20:00 +24°C° 0 mm 2 m/s 745 mmHg 68%
21:00 +21°C° 0 mm 2 m/s 745 mmHg 72%
22:00 +20°C° 0 mm 2 m/s 745 mmHg 76%
23:00 +20°C° 0 mm 2 m/s 745 mmHg 79%
Mostrar mais

Necessitamos do seu Consentimento

A Meteoprog e os seus Fornecedores de Serviços podem armazenar e aceder a dados pessoais como cookies, identificadores do dispositivo ou outras tecnologias semelhantes existentes no seu dispositivo e processar estes dados para personalizar conteúdos e anúncios, assim como funcionalidades nas redes sociais e análise de tráfego.

  • Armazenar e/ou aceder a informações no seu dispositivo

    Os cookies, identificadores do dispositivo ou outras informações podem ser armazenados ou acedidos no seu dispositivo, para os fins acima indicados.

  • Anúncios e conteúdos personalizados, medição de anúncios e conteúdos, dados sobre o público-alvo e desenvolvimento de produtos

    Os anúncios e os conteúdos podem ser personalizados com base num perfil. Podem ser adicionados dados adicionais para uma maior personalização dos anúncios e dos conteúdos. A eficácia dos anúncios e dos conteúdos pode ser medida. Podem ser obtidas informações sobre o público que visualizou os anúncios e os conteúdos. Estes dados podem ser usados para desenvolver ou melhorar sistemas, softwares ou a experiência do utilizador.

Ao clicar em "Eu concordo”, permitirá o uso de cookies, identificadores do dispositivo e web beacons mencionados ou outras tecnologias semelhantes. As configurações do navegador do seu dispositivo podem ser alteradas.

Para certos fins, podem ser invocados interesses legítimos ao invés de consentimento. Pode ler mais informação sobre este assunto na nossa Política de Privacidade e Cookies.